Content
SEND FEEDBACK

Daily
Averages
Monthly
Summary
United States of America

FERNWOOD, MISSISSIPPI


Home > North America > United States > Mississippi
Elevation: 429 feet     Latitude: 31 14N     Longitude: 090 28W

WEATHER
 
SELECT A DAY
Number of Records: 206,720;   Date Range: 1/1/95 - 9/18/14
 
SHARE

PRINT THIS DATA

[ ← Previous Day ]
WEATHER ALMANAC - JANUARY 23, 2013
[ Next Day → ]
[ °C ]   °F
Weather ElementAverageHighLow
Temperature54.4 °F70 °F (2:53 pm)39.9 °F (2:53 am)
Dewpoint42.6 °F48 °F (9:53 pm)37.9 °F (1:53 am)
Humidity69 %97 % (2:53 am)35 % (2:53 pm)
Barometer30.31 in30.38 in (8:53 am)30.26 in (4:53 pm)
Wind Speed3.6 mph12.7 mph (11:53 am)
Weather ElementAverage
Visibility9.3 mi
Wind DirectionESE (122.6 °)

Weather ElementTotal
Precipitation---
Heating Degree Days10.1 (Base 65)
Growing Degree Days5 (Base 50)
Averaged from 23 records on January 23, 2013
WEATHER CONDITIONS BREAKOUT
WIND DIRECTION BREAKOUT
WEATHER BY HOUR - JANUARY 23, 2013
[ °C ]   °F
Local TimeTemperatureDewpointHumidityBarometerVisibilityWind DirectionWind SpeedGust SpeedPrecipitationEventsConditions
1:53 AM41.0 °F37.9 °F89 %30.32 in10.0 miCalmClear
2:53 AM39.9 °F39.0 °F97 %30.32 in9.0 miCalmClear
3:53 AM39.9 °F37.9 °F93 %30.32 in8.0 miCalmClear
4:53 AM42.1 °F39.9 °F92 %30.32 in7.0 miCalmClear
5:53 AM42.1 °F39.9 °F92 %30.35 in10.0 miCalmOvercast
6:53 AM42.1 °F41.0 °F96 %30.36 in6.0 miCalmOvercast
7:53 AM42.1 °F41.0 °F96 %30.36 in5.0 miCalmClear
8:53 AM51.1 °F45.0 °F80 %30.38 in10.0 miSSW (210°)4.6 mphMostly Cloudy
9:53 AM57.0 °F46.0 °F67 %30.38 in10.0 miSouth (190°)6.9 mphPartly Cloudy
10:53 AM63.0 °F42.1 °F46 %30.38 in10.0 miSSW (210°)8.1 mphClear
11:53 AM64.9 °F42.1 °F43 %30.34 in10.0 miWSW (250°)12.7 mphClear
12:53 PM66.9 °F39.9 °F37 %30.31 in10.0 miSW (230°)8.1 mphClear
1:53 PM69.1 °F42.1 °F38 %30.29 in10.0 miVariable3.5 mphClear
2:53 PM70.0 °F41.0 °F35 %30.28 in10.0 miWest (270°)8.1 mphClear
3:53 PM69.1 °F42.1 °F38 %30.27 in10.0 miSW (230°)5.8 mphClear
4:53 PM66.9 °F41.0 °F39 %30.26 in10.0 miSW (220°)4.6 mphClear
5:53 PM61.0 °F43.0 °F52 %30.27 in10.0 miSSW (200°)4.6 mphClear
6:53 PM53.1 °F45.0 °F74 %30.27 in10.0 miSSW (200°)3.5 mphClear
7:53 PM52.0 °F45.0 °F77 %30.28 in10.0 miSouth (190°)3.5 mphClear
8:53 PM55.9 °F46.0 °F69 %30.28 in10.0 miSSW (210°)3.5 mphClear
9:53 PM57.0 °F48.0 °F72 %30.29 in10.0 miSSW (210°)4.6 mphClear
10:53 PM54.0 °F48.0 °F80 %30.29 in10.0 miCalmClear
11:53 PM51.1 °F46.9 °F86 %30.29 in10.0 miCalmClear
Hourly data recorded from KMCB, located miles away from Fernwood, Mississippi







STORIES FROM OUR PARTNERS